STARLINK-33755, 63579

Orbit data source: Space-Track

STARLINK-33755, 63579 is a payload satellite owned by SpaceX/Seattle (US) in LEO that was launched on Mon, 14 Apr 2025 UTC via an FALCON 9 launch vehicle from the Air Force Eastern Test Range (AFETR). Payload-class satellites include a variety of spacecraft equipped with specific instruments for various scientific and technological missions. These include communications satellites like Starlink; space stations such as the ISS; scientific satellites like the Hubble; Earth observation satellites from companies like Planet Labs, Umbra, and HawkEye 360; GPS; miniature CubeSats for education and research; and military/defense satellites.

Loading next visibility...
Identifier
63579, 2025-076L
Orbit
LEO
Country
Flag of USUS
Related business
Manufacturer
SpaceX/Seattle
Mission
Operational Commercial Communications
Bus & Motor
STARLINK V2MO, Unknown motor
Mass
575 kg wet, ~530 kg dry
Launch date (UTC)
2025-04-14 (1 year ago)
Launch vehicle
FALCON 9
Launch site
Air Force Eastern Test Range (AFETR)
Object type
Payload
Rocket body
Debris
Shape & HBR
Box + 2 Pan, 17.7 m
Radar Cross Section
36.964 m², Large (>1 m²)

Expand to show TLE details & history
Last TLE update: 9 hours ago

TLE from 9 hours ago
0 STARLINK-33755
1 63579U 25076L   26145.01264633  .00014912  00000-0  55027-3 0  9992
2 63579  43.0022 250.5283 0001828 269.8442  90.2200 15.27582709 63505
Epoch: 2026-05-25T00:18Z
TLE epoch observation values (Epoch: 2026-05-25T00:18:12.642Z)
Latitude
-0.00005°
Longitude
3.36903°
Altitude
482.822 km
Speed
7.626 km/s
True Right ascension
16h 42m 06s
True Declination
0° 00' 00"
Sunlit
Object was in full shadow at epoch
Visualization orbit readout
Latitude
Unknown
Longitude
Unknown
Altitude
Unknown
Speed
Unknown
Apparent Right ascension
Unknown
Apparent Declination
Unknown
Sunlit
N/A
Visualization observer readout
Local Sidereal Time
18:25:50
Azimuth
Unknown
Elevation
Unknown
Doppler factor
Unknown
Orbital elements
Apogee altitude
486.24 km
Perigee altitude
483.731 km
Semi-major axis
6,863.123 km
Eccentricity
0.00018
Inclination
43.0022°
RAAN
250.5283°
Arg. of periapsis
269.8442°
True anomaly
90.24095°
Mean anomaly
90.22°
Eccentric anomaly
90.23047°
Mean motion
3.81734 °/min
Orbital period
94.31 mins
BSTAR
0.00055027
Loading maneuver chart data...
Computing Atmospheric mass density...
Loading historical data...
Loading historical data...
Loading historical data...
Loading historical data...
Loading historical data...
Loading historical data...
Loading historical data...

Documentation

Showing up to 5 results
|